{"data":{"norad_id":48331,"epoch":"2026-09-19T15:54:22.289472Z","epoch_age_seconds":105852,"freshness":"FRESH","line1":"1 48331U 21036BH  26262.66275798  .00040188  00000+0  96908-3 0  9994","line2":"2 48331  53.1542 274.9908 0001461   6.0887 354.0136 15.40858368297818","mean_motion":15.40858368,"eccentricity":0.0001461,"inclination_deg":53.1542,"raan_deg":274.9908,"arg_perigee_deg":6.0887,"mean_anomaly_deg":354.0136,"bstar":0.00096908,"rev_number":29781,"period_min":93.45440372103,"perigee_km":442.57803594927,"apogee_km":444.57134010451,"semimajor_km":6821.7116880269,"source":"CELESTRAK","updated_at":"2026-09-20T09:00:38.937928Z"}}